Regional Weather Roundup
Issued by NWS

Home | Current Version | Previous Version | Graphics & Text | Print | Product List | Glossary On
Versions: 1 2 3 4 5 6 7 8 9 10 11 12 13 14 15 16 17 18 19 20 21 22 23 24 25 26 27 28 29 30 31 32 33 34 35 36 37 38 39 40 41 42 43 44 45 46 47 48 49 50
794
ASUS44 KLIX 312001
RWRLA
LOUISIANA WEATHER ROUNDUP
NATIONAL WEATHER SERVICE NEW ORLEANS LA
300 PM CDT SUN AUG 31 2014

NOTE: "FAIR" INDICATES FEW OR NO CLOUDS BELOW 12,000 FEET WITH NO
      SIGNIFICANT WEATHER AND/OR OBSTRUCTIONS TO VISIBILITY.
      SKY/WX - SKY CONDITION AND SIGNIFICANT WEATHER.
      TMP - AIR TEMPERATURE.    DP   - DEWPOINT TEMPERATURE.
      RH  - RELATIVE HUMIDITY.  PRES - PRESSURE.
      HX  - HEAT INDEX.         WCI  - WIND CHILL INDEX.

*  THESE STATIONS ARE NOT NWS OR FAA STATIONS AND ARE NOT UNDER
   NWS QUALITY CONTROL.

LAZ040-048-061>063-065-066-069-312100-
SOUTHEAST LOUISIANA

CITY           SKY/WX    TMP DP  RH WIND       PRES   REMARKS
N.O. AUDUBON   NOT AVBL
N.O. INTL ARPT PTSUNNY   92  75  57 S13       30.05F HX 103
N.O. LAKEFRONT MOSUNNY   91  74  57 E12       30.05F HX 100
N.O. DOWNTOWN* FAIR      91  72  52 SE8       30.06S HX  98
SLIDELL        MOSUNNY   91  74  57 S9        30.05F HX 100
BATON ROUGE    PTSUNNY   92  71  50 SE9       30.03F HX  98
BOOTHVILLE     SUNNY     89  76  65 SE9       30.07F HX 100
BELLE CHASSE   PTSUNNY   91  75  59 E14       30.04F HX 101
BOGALUSA*      FAIR      94  67  41 S7        30.07S HX  97
GALLIANO*      NOT AVBL
NEW ROADS*     FAIR      91  74  57 SE8       30.03F HX  99
GONZALES*      MOCLDY    92  73  54 SE7       30.03F HX 101
HAMMOND*       NOT AVBL
HOUMA*         PTSUNNY   90  72  55 SE12      30.04F HX  96
PORT FOURCHON* NOT AVBL

$$

LAZ041-044-053-054-312100-
SOUTHWEST LOUISIANA

CITY           SKY/WX    TMP DP  RH WIND       PRES   REMARKS
LAKE CHARLES   PTSUNNY   88  76  67 S8        30.01F HX  99
LAFAYETTE      PTSUNNY   91  76  61 S10       30.03F HX 103
PATTERSON      MOSUNNY   90  75  62 SE13G18   30.06  HX 100
SALT POINT       N/A     90  77  65 SE9       30.03F HX 103
NEW IBERIA     MOSUNNY   91  74  57 S12G18    30.03F HX 100
CHENAULT AIRPK NOT AVBL

$$

LAZ027-028-312100-
CENTRAL LOUISIANA

CITY           SKY/WX    TMP DP  RH WIND       PRES   REMARKS
FORT POLK      CLOUDY    85  74  69 S7        30.03F
ALEXANDRIA INT CLOUDY    87  75  67 S6        30.02S HX  96
ALEXANDRIA     CLOUDY    90  76  63 SW6       30.03F HX 101

$$

LAZ001-002-312100-
NORTHWEST LOUISIANA

CITY           SKY/WX    TMP DP  RH WIND       PRES   REMARKS
SHREVEPORT     PTSUNNY   91  74  57 SE15G21   29.97F HX 100
BARKSDALE AFB  MOSUNNY   85  76  74 SE16G24   29.99F
DTN SHREVEPORT LGT RAIN  82  75  79 SE12      29.99S

$$

LAZ014-016-312100-
NORTHEAST LOUISIANA

CITY           SKY/WX    TMP DP  RH WIND       PRES   REMARKS
MONROE         PTSUNNY   86  76  71 S6        30.03F HX  96
TALLULAH       CLOUDY    84  75  74 S8        30.04F

$$




USA.gov is the U.S. government's official web portal to all federal, state and local government web resources and services.